Time,TemperatureF,DewpointF,PressureIn,WindDirection,WindDirectionDegrees,WindSpeedMPH,WindSpeedGustMPH,Humidity,HourlyPrecipIn,Conditions,Clouds,dailyrainin,SoftwareType,DateUTC
2013-04-07 00:10:00,58.7,42.6,29.74,West,273,1.0,3.0,55,0.00,,---,0.00,VWS V14.01,2013-04-07 05:10:00,
2013-04-07 00:25:00,57.9,42.3,29.75,West,273,0.0,2.0,56,0.00,,---,0.00,VWS V14.01,2013-04-07 05:25:00,
2013-04-07 00:40:00,56.7,42.5,29.75,West,273,2.0,2.0,59,0.00,,---,0.00,VWS V14.01,2013-04-07 05:40:00,
2013-04-07 00:55:00,56.1,42.4,29.75,West,273,0.0,3.0,60,0.00,,---,0.00,VWS V14.01,2013-04-07 05:55:00,
2013-04-07 01:10:00,56.3,42.2,29.75,West,273,2.0,3.0,59,0.00,,---,0.00,VWS V14.01,2013-04-07 06:10:00,
2013-04-07 01:25:00,56.1,42.4,29.75,West,273,2.0,5.0,60,0.00,,---,0.00,VWS V14.01,2013-04-07 06:25:00,
2013-04-07 01:40:00,55.6,42.4,29.75,West,273,0.0,4.0,61,0.00,,---,0.00,VWS V14.01,2013-04-07 06:40:00,
2013-04-07 01:55:00,55.7,42.5,29.75,West,273,1.0,4.0,61,0.00,,---,0.00,VWS V14.01,2013-04-07 06:55:00,
2013-04-07 02:25:00,54.8,41.6,29.75,West,273,0.0,1.0,61,0.00,,---,0.00,VWS V14.01,2013-04-07 07:25:00,
2013-04-07 02:40:00,52.9,41.5,29.76,West,273,0.0,0.0,65,0.00,,---,0.00,VWS V14.01,2013-04-07 07:40:00,
2013-04-07 02:55:00,53.1,41.7,29.76,West,273,0.0,2.0,65,0.00,,---,0.00,VWS V14.01,2013-04-07 07:55:00,
2013-04-07 03:10:00,53.0,42.0,29.76,West,273,0.0,2.0,66,0.00,,---,0.00,VWS V14.01,2013-04-07 08:10:00,
2013-04-07 03:25:00,53.4,41.9,29.76,West,273,0.0,2.0,65,0.00,,---,0.00,VWS V14.01,2013-04-07 08:25:00,
2013-04-07 03:40:00,52.9,41.5,29.76,West,273,0.0,1.0,65,0.00,,---,0.00,VWS V14.01,2013-04-07 08:40:00,
2013-04-07 03:55:00,51.3,40.3,29.76,West,273,0.0,1.0,66,0.00,,---,0.00,VWS V14.01,2013-04-07 08:55:00,
2013-04-07 04:10:00,49.2,40.2,29.76,West,273,0.0,0.0,71,0.00,,---,0.00,VWS V14.01,2013-04-07 09:10:00,
2013-04-07 04:25:00,48.3,40.4,29.76,West,273,0.0,0.0,74,0.00,,---,0.00,VWS V14.01,2013-04-07 09:25:00,
2013-04-07 04:40:00,48.0,41.2,29.76,West,273,0.0,0.0,77,0.00,,---,0.00,VWS V14.01,2013-04-07 09:40:00,
2013-04-07 04:55:00,47.4,39.9,29.76,West,273,0.0,0.0,75,0.00,,---,0.00,VWS V14.01,2013-04-07 09:55:00,
2013-04-07 05:10:00,46.7,40.5,29.77,West,273,0.0,0.0,79,0.00,,---,0.00,VWS V14.01,2013-04-07 10:10:00,
2013-04-07 05:25:00,46.9,41.4,29.77,West,273,0.0,0.0,81,0.00,,---,0.00,VWS V14.01,2013-04-07 10:25:00,
2013-04-07 05:40:00,46.4,41.2,29.76,West,273,0.0,0.0,82,0.00,,---,0.00,VWS V14.01,2013-04-07 10:40:00,
2013-04-07 05:55:00,45.3,40.8,29.77,West,273,0.0,2.0,84,0.00,,---,0.00,VWS V14.01,2013-04-07 10:55:00,
2013-04-07 06:10:00,44.7,41.1,29.77,West,273,0.0,0.0,87,0.00,,---,0.00,VWS V14.01,2013-04-07 11:10:00,
2013-04-07 06:25:00,44.5,41.2,29.78,West,273,0.0,1.0,88,0.00,,---,0.00,VWS V14.01,2013-04-07 11:25:00,
2013-04-07 06:40:00,44.5,41.5,29.78,West,273,0.0,0.0,89,0.00,,---,0.00,VWS V14.01,2013-04-07 11:40:00,
2013-04-07 06:55:00,44.6,41.8,29.79,West,273,0.0,1.0,90,0.00,,---,0.00,VWS V14.01,2013-04-07 11:55:00,
2013-04-07 07:10:00,46.1,42.8,29.80,West,273,0.0,3.0,88,0.00,,---,0.00,VWS V14.01,2013-04-07 12:10:00,
2013-04-07 07:25:00,47.0,42.7,29.80,West,273,0.0,0.0,85,0.00,,---,0.00,VWS V14.01,2013-04-07 12:25:00,
2013-04-07 07:40:00,48.4,42.8,29.81,West,273,0.0,0.0,81,0.00,,---,0.00,VWS V14.01,2013-04-07 12:40:00,
2013-04-07 07:55:00,49.0,43.1,29.81,West,273,0.0,1.0,80,0.00,,---,0.00,VWS V14.01,2013-04-07 12:55:00,
2013-04-07 08:10:00,49.1,43.8,29.81,West,273,2.0,3.0,82,0.00,,---,0.00,VWS V14.01,2013-04-07 13:10:00,
2013-04-07 08:25:00,49.5,44.9,29.81,West,281,4.0,5.0,84,0.00,,---,0.00,VWS V14.01,2013-04-07 13:25:00,
2013-04-07 08:40:00,51.6,45.3,29.81,NE,52,4.0,5.0,79,0.00,,---,0.00,VWS V14.01,2013-04-07 13:40:00,
2013-04-07 08:55:00,53.4,46.0,29.81,NE,54,3.0,5.0,76,0.00,,---,0.00,VWS V14.01,2013-04-07 13:55:00,
2013-04-07 09:10:00,54.9,45.7,29.82,East,90,2.0,5.0,71,0.00,,---,0.00,VWS V14.01,2013-04-07 14:10:00,
2013-04-07 09:40:00,57.1,46.7,29.80,East,82,3.0,7.0,68,0.00,,---,0.00,VWS V14.01,2013-04-07 14:40:00,
2013-04-07 09:55:00,58.3,47.8,29.80,East,90,2.0,5.0,68,0.00,,---,0.00,VWS V14.01,2013-04-07 14:55:00,
2013-04-07 10:10:00,60.3,48.5,29.81,ESE,102,2.0,6.0,65,0.00,,---,0.00,VWS V14.01,2013-04-07 15:10:00,
2013-04-07 10:25:00,61.8,48.7,29.81,ESE,109,0.0,7.0,62,0.00,,---,0.00,VWS V14.01,2013-04-07 15:25:00,
2013-04-07 10:40:00,63.2,47.7,29.81,ESE,121,6.0,7.0,57,0.00,,---,0.00,VWS V14.01,2013-04-07 15:40:00,
2013-04-07 10:55:00,64.2,48.2,29.81,SE,125,4.0,8.0,56,0.00,,---,0.00,VWS V14.01,2013-04-07 15:55:00,
2013-04-07 11:10:00,64.9,48.4,29.81,SSE,147,8.0,10.0,55,0.00,,---,0.00,VWS V14.01,2013-04-07 16:10:00,
2013-04-07 11:25:00,66.2,48.1,29.81,SE,130,2.0,11.0,52,0.00,,---,0.00,VWS V14.01,2013-04-07 16:25:00,
2013-04-07 11:40:00,66.9,49.2,29.80,SE,133,6.0,12.0,53,0.00,,---,0.00,VWS V14.01,2013-04-07 16:40:00,
2013-04-07 11:55:00,67.7,48.9,29.80,SE,136,4.0,11.0,51,0.00,,---,0.00,VWS V14.01,2013-04-07 16:55:00,
2013-04-07 12:10:00,69.3,48.8,29.80,SSE,160,6.0,9.0,48,0.00,,---,0.00,VWS V14.01,2013-04-07 17:10:00,
2013-04-07 12:25:00,70.4,48.1,29.79,SE,137,8.0,11.0,45,0.00,,---,0.00,VWS V14.01,2013-04-07 17:25:00,
2013-04-07 12:40:00,70.5,47.6,29.79,SE,136,6.0,13.0,44,0.00,,---,0.00,VWS V14.01,2013-04-07 17:40:00,
2013-04-07 12:55:00,71.3,48.3,29.78,SE,132,8.0,15.0,44,0.00,,---,0.00,VWS V14.01,2013-04-07 17:55:00,
2013-04-07 13:10:00,72.1,49.6,29.77,SSE,148,8.0,14.0,45,0.00,,---,0.00,VWS V14.01,2013-04-07 18:10:00,
2013-04-07 13:25:00,73.0,45.2,29.77,SSE,153,11.0,17.0,37,0.00,,---,0.00,VWS V14.01,2013-04-07 18:25:00,
2013-04-07 13:40:00,72.6,44.9,29.76,SSE,155,11.0,17.0,37,0.00,,---,0.00,VWS V14.01,2013-04-07 18:40:00,
2013-04-07 13:55:00,71.8,44.8,29.75,SSE,161,6.0,15.0,38,0.00,,---,0.00,VWS V14.01,2013-04-07 18:55:00,
2013-04-07 14:10:00,71.4,45.8,29.75,SE,138,7.0,15.0,40,0.00,,---,0.00,VWS V14.01,2013-04-07 19:10:00,
2013-04-07 14:25:00,70.8,46.6,29.75,SSE,161,6.0,14.0,42,0.00,,---,0.00,VWS V14.01,2013-04-07 19:25:00,
2013-04-07 14:40:00,70.8,46.0,29.74,SSE,163,9.0,14.0,41,0.00,,---,0.00,VWS V14.01,2013-04-07 19:40:00,
2013-04-07 14:55:00,70.8,47.2,29.73,SSE,155,6.0,13.0,43,0.00,,---,0.00,VWS V14.01,2013-04-07 19:55:00,
2013-04-07 15:10:00,70.8,46.6,29.73,SSE,156,8.0,15.0,42,0.00,,---,0.00,VWS V14.01,2013-04-07 20:10:00,
2013-04-07 15:25:00,70.9,47.3,29.72,SE,140,11.0,15.0,43,0.00,,---,0.00,VWS V14.01,2013-04-07 20:25:00,
2013-04-07 15:40:00,70.8,49.0,29.71,SSE,161,6.0,13.0,46,0.00,,---,0.00,VWS V14.01,2013-04-07 20:40:00,
2013-04-07 15:55:00,70.6,48.8,29.70,SSE,161,7.0,14.0,46,0.00,,---,0.00,VWS V14.01,2013-04-07 20:55:00,
2013-04-07 16:10:00,70.7,49.5,29.70,SSE,148,5.0,12.0,47,0.00,,---,0.00,VWS V14.01,2013-04-07 21:10:00,
2013-04-07 16:25:00,70.8,49.6,29.69,ESE,117,9.0,10.0,47,0.00,,---,0.00,VWS V14.01,2013-04-07 21:25:00,
2013-04-07 16:40:00,70.7,47.7,29.68,ESE,112,11.0,15.0,44,0.00,,---,0.00,VWS V14.01,2013-04-07 21:40:00,
2013-04-07 16:55:00,70.8,47.8,29.67,SE,135,9.0,15.0,44,0.00,,---,0.00,VWS V14.01,2013-04-07 21:55:00,
2013-04-07 17:10:00,71.4,48.4,29.67,ESE,121,7.0,16.0,44,0.00,,---,0.00,VWS V14.01,2013-04-07 22:10:00,
2013-04-07 17:25:00,71.6,49.2,29.66,SSE,161,8.0,13.0,45,0.00,,---,0.00,VWS V14.01,2013-04-07 22:25:00,
2013-04-07 17:40:00,71.5,49.1,29.66,South,180,8.0,16.0,45,0.00,,---,0.00,VWS V14.01,2013-04-07 22:40:00,
2013-04-07 17:55:00,71.0,49.2,29.65,SE,146,11.0,22.0,46,0.00,,---,0.00,VWS V14.01,2013-04-07 22:55:00,
2013-04-07 18:10:00,70.5,50.4,29.64,SE,142,20.0,22.0,49,0.00,,---,0.00,VWS V14.01,2013-04-07 23:10:00,
2013-04-07 18:25:00,69.8,50.9,29.63,SE,130,6.0,20.0,51,0.00,,---,0.00,VWS V14.01,2013-04-07 23:25:00,
2013-04-07 18:40:00,69.5,51.6,29.61,SE,132,4.0,20.0,53,0.00,,---,0.00,VWS V14.01,2013-04-07 23:40:00,
2013-04-07 18:55:00,69.1,51.3,29.61,SE,126,8.0,18.0,53,0.00,,---,0.00,VWS V14.01,2013-04-07 23:55:00,
2013-04-07 19:10:00,68.7,51.4,29.61,SSE,161,15.0,20.0,54,0.00,,---,0.00,VWS V14.01,2013-04-08 00:10:00,
2013-04-07 19:25:00,68.2,52.9,29.60,East,88,6.0,18.0,58,0.00,,---,0.00,VWS V14.01,2013-04-08 00:25:00,
2013-04-07 19:40:00,67.5,52.7,29.59,East,100,4.0,16.0,59,0.00,,---,0.00,VWS V14.01,2013-04-08 00:40:00,
2013-04-07 19:55:00,66.6,53.2,29.60,SE,141,10.0,18.0,62,0.00,,---,0.00,VWS V14.01,2013-04-08 00:55:00,
2013-04-07 20:10:00,65.6,52.7,29.60,SE,143,18.0,21.0,63,0.00,,---,0.00,VWS V14.01,2013-04-08 01:10:00,
2013-04-07 20:25:00,63.5,53.5,29.62,SSE,162,7.0,18.0,70,0.01,,---,0.01,VWS V14.01,2013-04-08 01:25:00,
2013-04-07 20:40:00,62.0,53.3,29.61,SE,143,11.0,13.0,73,0.02,,---,0.02,VWS V14.01,2013-04-08 01:40:00,
2013-04-07 20:55:00,60.7,53.1,29.61,SE,138,4.0,15.0,76,0.02,,---,0.02,VWS V14.01,2013-04-08 01:55:00,
2013-04-07 21:10:00,59.9,53.4,29.64,SSE,161,7.0,14.0,79,0.02,,---,0.02,VWS V14.01,2013-04-08 02:10:00,
2013-04-07 21:25:00,58.9,53.8,29.69,SSW,195,5.0,13.0,83,0.07,,---,0.07,VWS V14.01,2013-04-08 02:25:00,
2013-04-07 21:40:00,57.8,54.0,29.69,SSW,203,3.0,11.0,87,0.35,,---,0.36,VWS V14.01,2013-04-08 02:40:00,
2013-04-07 21:55:00,57.2,54.0,29.68,South,186,1.0,12.0,89,0.42,,---,0.44,VWS V14.01,2013-04-08 02:55:00,
2013-04-07 22:25:00,56.8,54.2,29.66,SE,146,5.0,14.0,91,0.45,,---,0.47,VWS V14.01,2013-04-08 03:25:00,
2013-04-07 22:40:00,56.3,53.4,29.64,SSE,159,8.0,13.0,90,0.40,,---,0.47,VWS V14.01,2013-04-08 03:40:00,
2013-04-07 22:55:00,55.7,52.8,29.63,SE,132,15.0,19.0,90,0.16,,---,0.52,VWS V14.01,2013-04-08 03:55:00,
2013-04-07 23:10:00,55.3,52.4,29.62,ENE,70,7.0,18.0,90,0.08,,---,0.52,VWS V14.01,2013-04-08 04:10:00,
2013-04-07 23:25:00,55.3,51.5,29.60,SSE,155,14.0,18.0,87,0.06,,---,0.52,VWS V14.01,2013-04-08 04:25:00,
2013-04-07 23:40:00,55.1,51.0,29.59,ESE,117,11.0,18.0,86,0.07,,---,0.54,VWS V14.01,2013-04-08 04:40:00,
2013-04-07 23:55:00,54.9,51.7,29.63,SSE,158,1.0,17.0,89,0.19,,---,0.66,VWS V14.01,2013-04-08 04:55:00,